Time,TemperatureF,DewpointF,PressureIn,WindDirection,WindDirectionDegrees,WindSpeedMPH,WindSpeedGustMPH,Humidity,HourlyPrecipIn,Conditions,Clouds,dailyrainin,SoftwareType,DateUTC
2013-06-12 00:01:00,73.8,64.6,29.99,SSE,165,0.7,2.3,73,0.00,RA,,0.00,WeatherDisplay:10.37,2013-06-12 04:01:00,
2013-06-12 00:02:00,73.9,64.7,29.99,SW,219,0.2,2.3,73,0.00,RA,,0.00,WeatherDisplay:10.37,2013-06-12 04:02:00,
2013-06-12 00:07:00,73.9,64.7,29.99,West,268,0.0,2.3,73,0.00,RA,,0.00,WeatherDisplay:10.37,2013-06-12 04:07:00,
2013-06-12 00:12:00,73.8,64.6,29.99,SW,226,1.2,2.3,73,0.00,RA,,0.00,WeatherDisplay:10.37,2013-06-12 04:12:00,
2013-06-12 00:17:00,73.7,64.5,29.99,SSW,201,0.8,2.3,73,0.00,RA,,0.00,WeatherDisplay:10.37,2013-06-12 04:17:00,
2013-06-12 00:22:00,73.7,64.5,29.99,WSW,245,2.2,4.0,73,0.00,RA,,0.00,WeatherDisplay:10.37,2013-06-12 04:22:00,
2013-06-12 00:27:00,73.8,64.6,29.99,WSW,255,0.6,2.3,73,0.00,RA,,0.00,WeatherDisplay:10.37,2013-06-12 04:27:00,
2013-06-12 00:32:00,73.9,64.7,29.99,SSW,205,1.7,4.6,73,0.00,SCT,,0.00,WeatherDisplay:10.37,2013-06-12 04:32:00,
2013-06-12 00:37:00,74.0,64.8,29.99,WSW,246,0.8,3.0,73,0.00,SCT,,0.00,WeatherDisplay:10.37,2013-06-12 04:37:00,
2013-06-12 00:42:00,73.7,64.5,29.99,SSE,160,0.2,1.2,73,0.00,SCT,,0.00,WeatherDisplay:10.37,2013-06-12 04:42:00,
2013-06-12 00:47:00,73.1,65.1,29.99,SE,125,0.2,1.2,76,0.00,SCT,,0.00,WeatherDisplay:10.37,2013-06-12 04:47:00,
2013-06-12 00:52:00,72.1,64.5,29.98,ESE,113,0.0,1.2,77,0.00,SCT,,0.00,WeatherDisplay:10.37,2013-06-12 04:52:00,
2013-06-12 00:57:00,71.6,64.4,29.98,ESE,113,0.0,0.0,78,0.00,SCT,,0.00,WeatherDisplay:10.37,2013-06-12 04:57:00,
2013-06-12 01:02:00,71.1,65.0,29.98,WSW,245,0.0,0.0,81,0.00,SCT,,0.00,WeatherDisplay:10.37,2013-06-12 05:02:00,
2013-06-12 01:07:00,70.6,64.5,29.98,WSW,245,0.0,0.0,81,0.00,SCT,,0.00,WeatherDisplay:10.37,2013-06-12 05:07:00,
2013-06-12 01:12:00,70.2,64.1,29.99,WSW,245,0.0,0.0,81,0.00,SCT,,0.00,WeatherDisplay:10.37,2013-06-12 05:12:00,
2013-06-12 01:17:00,69.8,64.1,29.99,WSW,245,0.0,1.2,82,0.00,FEW,,0.00,WeatherDisplay:10.37,2013-06-12 05:17:00,
2013-06-12 01:22:00,69.4,64.0,29.98,WSW,246,0.4,1.2,83,0.00,FEW,,0.00,WeatherDisplay:10.37,2013-06-12 05:22:00,
2013-06-12 01:27:00,69.5,63.8,29.98,WSW,246,0.0,0.0,82,0.00,FEW,,0.00,WeatherDisplay:10.37,2013-06-12 05:27:00,
2013-06-12 01:32:00,69.3,64.3,29.98,WSW,246,0.0,0.0,84,0.00,FEW,,0.00,WeatherDisplay:10.37,2013-06-12 05:32:00,
2013-06-12 01:37:00,69.0,64.0,29.98,WSW,248,0.1,1.2,84,0.00,FEW,,0.00,WeatherDisplay:10.37,2013-06-12 05:37:00,
2013-06-12 01:42:00,69.4,64.0,29.98,WSW,239,0.0,0.0,83,0.00,FEW,,0.00,WeatherDisplay:10.37,2013-06-12 05:42:00,
2013-06-12 01:47:00,69.4,63.7,29.99,WSW,239,0.0,0.0,82,0.00,FEW,,0.00,WeatherDisplay:10.37,2013-06-12 05:47:00,
2013-06-12 01:52:00,69.3,63.9,29.99,WSW,239,0.0,0.0,83,0.00,FEW,,0.00,WeatherDisplay:10.37,2013-06-12 05:52:00,
2013-06-12 01:57:00,69.2,64.2,29.99,WSW,239,0.0,0.0,84,0.00,FEW,,0.00,WeatherDisplay:10.37,2013-06-12 05:57:00,
2013-06-12 02:02:00,69.0,64.6,29.99,WSW,239,0.1,1.2,86,0.00,FEW,,0.00,WeatherDisplay:10.37,2013-06-12 06:02:00,
2013-06-12 02:07:00,68.7,64.3,29.98,WSW,239,0.0,0.0,86,0.00,FEW,,0.00,WeatherDisplay:10.37,2013-06-12 06:07:00,
2013-06-12 02:12:00,68.3,64.3,29.98,WSW,240,0.0,0.0,87,0.00,FEW,,0.00,WeatherDisplay:10.37,2013-06-12 06:12:00,
2013-06-12 02:17:00,67.9,64.2,29.99,WSW,240,0.0,0.0,88,0.00,CLR,,0.00,WeatherDisplay:10.37,2013-06-12 06:17:00,
2013-06-12 02:22:00,67.6,64.2,29.99,WSW,239,0.0,0.0,89,0.00,CLR,,0.00,WeatherDisplay:10.37,2013-06-12 06:22:00,
2013-06-12 02:27:00,67.4,64.0,29.99,WSW,239,0.0,1.2,89,0.00,CLR,,0.00,WeatherDisplay:10.37,2013-06-12 06:27:00,
2013-06-12 02:32:00,67.1,64.1,29.99,West,263,0.0,0.0,90,0.00,CLR,,0.00,WeatherDisplay:10.37,2013-06-12 06:32:00,
2013-06-12 02:37:00,66.8,64.1,29.98,ESE,108,1.9,3.5,91,0.00,CLR,,0.00,WeatherDisplay:10.37,2013-06-12 06:37:00,
2013-06-12 02:42:00,66.7,63.7,29.98,WSW,255,0.0,0.0,90,0.00,CLR,,0.00,WeatherDisplay:10.37,2013-06-12 06:42:00,
2013-06-12 02:47:00,66.6,63.9,30.00,West,270,0.4,2.0,91,0.00,CLR,,0.00,WeatherDisplay:10.37,2013-06-12 06:47:00,
2013-06-12 02:52:00,66.5,63.8,30.00,ESE,113,0.9,2.3,91,0.00,CLR,,0.00,WeatherDisplay:10.37,2013-06-12 06:52:00,
2013-06-12 02:57:00,66.7,63.7,29.99,ESE,111,1.3,2.3,90,0.00,CLR,,0.00,WeatherDisplay:10.37,2013-06-12 06:57:00,
2013-06-12 03:02:00,66.9,63.9,30.00,North,352,0.0,0.0,90,0.00,CLR,,0.00,WeatherDisplay:10.37,2013-06-12 07:02:00,
2013-06-12 03:07:00,66.9,63.9,30.00,East,90,0.7,1.2,90,0.00,CLR,,0.00,WeatherDisplay:10.37,2013-06-12 07:07:00,
2013-06-12 03:12:00,66.9,63.9,30.00,WSW,239,0.0,0.0,90,0.00,CLR,,0.00,WeatherDisplay:10.37,2013-06-12 07:12:00,
2013-06-12 03:17:00,66.8,63.8,29.99,WSW,239,0.0,0.0,90,0.00,CLR,,0.00,WeatherDisplay:10.37,2013-06-12 07:17:00,
2013-06-12 03:22:00,66.8,63.8,30.00,WSW,238,0.2,1.2,90,0.00,CLR,,0.00,WeatherDisplay:10.37,2013-06-12 07:22:00,
2013-06-12 03:27:00,66.7,64.0,29.99,West,279,1.3,3.5,91,0.00,CLR,,0.00,WeatherDisplay:10.37,2013-06-12 07:27:00,
2013-06-12 03:32:00,66.6,63.9,30.00,WNW,283,0.0,1.2,91,0.00,CLR,,0.00,WeatherDisplay:10.37,2013-06-12 07:32:00,
2013-06-12 03:37:00,66.4,63.7,30.00,West,280,0.0,0.0,91,0.00,CLR,,0.00,WeatherDisplay:10.37,2013-06-12 07:37:00,
2013-06-12 03:42:00,66.4,63.7,30.00,North,350,0.7,1.2,91,0.00,CLR,,0.00,WeatherDisplay:10.37,2013-06-12 07:42:00,
2013-06-12 03:47:00,66.3,63.6,30.01,SE,131,0.0,0.0,91,0.00,CLR,,0.00,WeatherDisplay:10.37,2013-06-12 07:47:00,
2013-06-12 03:52:00,66.3,63.6,30.00,SE,124,0.0,0.0,91,0.00,CLR,,0.00,WeatherDisplay:10.37,2013-06-12 07:52:00,
2013-06-12 03:57:00,66.3,63.6,30.00,West,276,1.3,2.3,91,0.00,CLR,,0.00,WeatherDisplay:10.37,2013-06-12 07:57:00,
2013-06-12 04:02:00,66.3,63.6,30.00,West,276,0.0,0.0,91,0.00,CLR,,0.00,WeatherDisplay:10.37,2013-06-12 08:02:00,
2013-06-12 04:07:00,66.4,63.7,29.99,West,276,0.0,0.0,91,0.00,CLR,,0.00,WeatherDisplay:10.37,2013-06-12 08:07:00,
2013-06-12 04:12:00,66.4,63.7,29.99,ENE,68,0.2,1.2,91,0.00,CLR,,0.00,WeatherDisplay:10.37,2013-06-12 08:12:00,
2013-06-12 04:17:00,66.6,63.9,29.99,SW,231,0.0,0.0,91,0.00,CLR,,0.00,WeatherDisplay:10.37,2013-06-12 08:17:00,
2013-06-12 04:22:00,67.3,63.9,30.00,West,259,0.0,0.0,89,0.00,CLR,,0.00,WeatherDisplay:10.37,2013-06-12 08:22:00,
2013-06-12 04:27:00,67.2,63.8,30.00,WSW,241,0.0,0.0,89,0.00,CLR,,0.00,WeatherDisplay:10.37,2013-06-12 08:27:00,
2013-06-12 04:32:00,66.9,63.9,30.00,East,94,0.0,0.0,90,0.00,CLR,,0.00,WeatherDisplay:10.37,2013-06-12 08:32:00,
2013-06-12 04:37:00,66.7,64.0,30.00,ESE,122,0.2,1.2,91,0.00,CLR,,0.00,WeatherDisplay:10.37,2013-06-12 08:37:00,
2013-06-12 04:42:00,66.4,63.7,30.00,West,280,0.0,1.2,91,0.00,CLR,,0.00,WeatherDisplay:10.37,2013-06-12 08:42:00,
2013-06-12 04:47:00,66.2,63.8,30.00,West,280,0.5,1.2,92,0.00,CLR,,0.00,WeatherDisplay:10.37,2013-06-12 08:47:00,
2013-06-12 04:52:00,65.8,63.4,30.00,North,355,0.0,1.2,92,0.00,CLR,,0.00,WeatherDisplay:10.37,2013-06-12 08:52:00,
2013-06-12 04:57:00,65.6,63.5,30.00,West,279,0.0,1.2,93,0.00,CLR,,0.00,WeatherDisplay:10.37,2013-06-12 08:57:00,
2013-06-12 05:02:00,65.4,63.3,30.00,West,280,0.0,0.0,93,0.00,CLR,,0.00,WeatherDisplay:10.37,2013-06-12 09:02:00,
2013-06-12 05:07:00,65.2,63.4,30.00,ENE,70,0.3,1.2,94,0.00,CLR,,0.00,WeatherDisplay:10.37,2013-06-12 09:07:00,
2013-06-12 05:12:00,65.0,63.2,30.00,ENE,70,0.0,1.2,94,0.00,CLR,,0.00,WeatherDisplay:10.37,2013-06-12 09:12:00,
2013-06-12 05:17:00,65.0,63.2,30.00,ENE,70,0.0,0.0,94,0.00,CLR,,0.00,WeatherDisplay:10.37,2013-06-12 09:17:00,
2013-06-12 05:22:00,64.8,63.0,30.00,North,1,0.1,1.2,94,0.00,CLR,,0.00,WeatherDisplay:10.37,2013-06-12 09:22:00,
2013-06-12 05:27:00,64.6,62.8,30.00,SSW,211,0.3,1.2,94,0.00,CLR,,0.00,WeatherDisplay:10.37,2013-06-12 09:27:00,
2013-06-12 05:32:00,64.5,63.0,30.00,NE,34,0.3,1.2,95,0.00,CLR,,0.00,WeatherDisplay:10.37,2013-06-12 09:32:00,
2013-06-12 05:37:00,64.5,63.0,30.00,NE,34,0.0,0.0,95,0.00,CLR,,0.00,WeatherDisplay:10.37,2013-06-12 09:37:00,
2013-06-12 05:42:00,64.3,62.8,30.00,WSW,250,0.0,0.0,95,0.00,CLR,,0.00,WeatherDisplay:10.37,2013-06-12 09:42:00,
2013-06-12 05:47:00,64.2,62.7,30.00,WSW,250,0.0,0.0,95,0.00,CLR,,0.00,WeatherDisplay:10.37,2013-06-12 09:47:00,
2013-06-12 05:52:00,64.0,62.5,30.00,WSW,250,0.0,0.0,95,0.00,CLR,,0.00,WeatherDisplay:10.37,2013-06-12 09:52:00,
2013-06-12 05:57:00,63.9,62.4,30.00,WSW,250,0.0,0.0,95,0.00,CLR,,0.00,WeatherDisplay:10.37,2013-06-12 09:57:00,
2013-06-12 06:02:00,63.8,62.3,30.00,WSW,256,0.0,0.0,95,0.00,CLR,,0.00,WeatherDisplay:10.37,2013-06-12 10:02:00,
2013-06-12 06:07:00,63.8,62.6,30.00,WSW,256,0.0,0.0,96,0.00,CLR,,0.00,WeatherDisplay:10.37,2013-06-12 10:07:00,
2013-06-12 06:12:00,63.7,62.5,30.00,SW,217,0.2,1.2,96,0.00,CLR,,0.00,WeatherDisplay:10.37,2013-06-12 10:12:00,
2013-06-12 06:17:00,63.8,62.6,30.00,WNW,303,0.0,1.2,96,0.00,CLR,,0.00,WeatherDisplay:10.37,2013-06-12 10:17:00,
2013-06-12 06:22:00,63.8,62.6,30.00,NE,48,1.0,1.2,96,0.00,CLR,,0.00,WeatherDisplay:10.37,2013-06-12 10:22:00,
2013-06-12 06:27:00,64.0,62.8,30.00,WSW,256,0.4,1.2,96,0.00,CLR,,0.00,WeatherDisplay:10.37,2013-06-12 10:27:00,
2013-06-12 06:32:00,64.1,62.9,30.00,WSW,257,0.0,0.0,96,0.00,CLR,,0.00,WeatherDisplay:10.37,2013-06-12 10:32:00,
2013-06-12 06:37:00,64.1,62.9,30.00,WSW,257,0.0,0.0,96,0.00,CLR,,0.00,WeatherDisplay:10.37,2013-06-12 10:37:00,
2013-06-12 06:42:00,64.2,63.0,30.00,WNW,283,0.7,2.3,96,0.00,CLR,,0.00,WeatherDisplay:10.37,2013-06-12 10:42:00,
2013-06-12 06:47:00,64.4,63.2,30.00,WSW,243,0.0,0.0,96,0.00,CLR,,0.00,WeatherDisplay:10.37,2013-06-12 10:47:00,
2013-06-12 06:52:00,64.6,63.4,30.00,West,269,0.0,0.0,96,0.00,CLR,,0.00,WeatherDisplay:10.37,2013-06-12 10:52:00,
2013-06-12 06:57:00,65.0,63.8,30.00,WNW,301,0.0,1.2,96,0.00,CLR,,0.00,WeatherDisplay:10.37,2013-06-12 10:57:00,
2013-06-12 07:02:00,65.3,63.8,30.00,WSW,249,0.0,0.0,95,0.00,CLR,,0.00,WeatherDisplay:10.37,2013-06-12 11:02:00,
2013-06-12 07:07:00,65.6,64.1,30.00,WNW,294,0.0,1.2,95,0.00,CLR,,0.00,WeatherDisplay:10.37,2013-06-12 11:07:00,
2013-06-12 07:12:00,65.9,64.1,29.99,WSW,238,0.0,0.0,94,0.00,CLR,,0.00,WeatherDisplay:10.37,2013-06-12 11:12:00,
2013-06-12 07:17:00,66.2,64.4,29.99,SW,233,0.0,0.0,94,0.00,CLR,,0.00,WeatherDisplay:10.37,2013-06-12 11:17:00,
2013-06-12 07:22:00,66.6,64.5,29.99,WNW,283,0.1,1.2,93,0.00,CLR,,0.00,WeatherDisplay:10.37,2013-06-12 11:22:00,
2013-06-12 07:27:00,66.9,64.8,29.99,WNW,283,0.0,0.0,93,0.00,CLR,,0.00,WeatherDisplay:10.37,2013-06-12 11:27:00,
2013-06-12 07:32:00,67.1,65.0,29.99,WNW,283,0.0,0.0,93,0.00,CLR,,0.00,WeatherDisplay:10.37,2013-06-12 11:32:00,
2013-06-12 07:37:00,67.4,65.3,29.99,WNW,282,0.0,0.0,93,0.00,CLR,,0.00,WeatherDisplay:10.37,2013-06-12 11:37:00,
2013-06-12 07:42:00,67.8,65.4,29.99,WNW,283,0.0,0.0,92,0.00,CLR,,0.00,WeatherDisplay:10.37,2013-06-12 11:42:00,
2013-06-12 07:47:00,68.5,65.8,30.00,WSW,253,0.1,1.2,91,0.00,CLR,,0.00,WeatherDisplay:10.37,2013-06-12 11:47:00,
2013-06-12 07:52:00,69.5,66.1,30.00,WSW,256,0.0,0.0,89,0.00,CLR,,0.00,WeatherDisplay:10.37,2013-06-12 11:52:00,
2013-06-12 07:57:00,70.2,65.8,29.99,SW,217,0.0,0.0,86,0.00,CLR,,0.00,WeatherDisplay:10.37,2013-06-12 11:57:00,
2013-06-12 08:02:00,71.7,66.6,29.99,SE,140,0.0,0.0,84,0.00,CLR,,0.00,WeatherDisplay:10.37,2013-06-12 12:02:00,
2013-06-12 08:07:00,72.7,66.5,30.00,SE,139,0.0,0.0,81,0.00,CLR,,0.00,WeatherDisplay:10.37,2013-06-12 12:07:00,
2013-06-12 08:12:00,73.0,66.5,30.00,SE,140,0.0,0.0,80,0.00,CLR,,0.00,WeatherDisplay:10.37,2013-06-12 12:12:00,
2013-06-12 08:17:00,73.6,67.0,30.00,East,89,0.0,0.0,80,0.00,CLR,,0.00,WeatherDisplay:10.37,2013-06-12 12:17:00,
2013-06-12 08:22:00,73.9,67.3,30.00,East,89,0.0,0.0,80,0.00,CLR,,0.00,WeatherDisplay:10.37,2013-06-12 12:22:00,
2013-06-12 08:27:00,74.1,67.5,30.00,East,89,0.0,0.0,80,0.00,CLR,,0.00,WeatherDisplay:10.37,2013-06-12 12:27:00,
2013-06-12 08:32:00,74.3,68.1,30.00,East,89,0.0,0.0,81,0.00,CLR,,0.00,WeatherDisplay:10.37,2013-06-12 12:32:00,
2013-06-12 08:37:00,74.5,67.9,30.00,East,89,0.0,0.0,80,0.00,CLR,,0.00,WeatherDisplay:10.37,2013-06-12 12:37:00,
2013-06-12 08:42:00,74.7,67.8,30.00,East,89,0.0,0.0,79,0.00,CLR,,0.00,WeatherDisplay:10.37,2013-06-12 12:42:00,
2013-06-12 08:47:00,74.9,67.6,29.99,East,89,0.1,1.2,78,0.00,CLR,,0.00,WeatherDisplay:10.37,2013-06-12 12:47:00,
2013-06-12 08:52:00,75.3,67.6,30.00,East,89,0.0,0.0,77,0.00,CLR,,0.00,WeatherDisplay:10.37,2013-06-12 12:52:00,
2013-06-12 08:57:00,75.9,68.5,30.00,SW,235,0.0,1.0,78,0.00,CLR,,0.00,WeatherDisplay:10.37,2013-06-12 12:57:00,
2013-06-12 09:02:00,76.5,67.6,30.00,SE,127,0.8,2.3,74,0.00,FEW,,0.00,WeatherDisplay:10.37,2013-06-12 13:02:00,
2013-06-12 09:07:00,76.9,68.4,30.00,NE,43,1.2,3.5,75,0.00,FEW,,0.00,WeatherDisplay:10.37,2013-06-12 13:07:00,
2013-06-12 09:12:00,77.3,68.4,29.99,ESE,115,0.5,2.3,74,0.00,FEW,,0.00,WeatherDisplay:10.37,2013-06-12 13:12:00,
2013-06-12 09:17:00,77.8,68.4,30.00,WSW,250,1.2,2.3,73,0.00,FEW,,0.00,WeatherDisplay:10.37,2013-06-12 13:17:00,
2013-06-12 09:22:00,78.1,69.1,30.00,WSW,250,0.0,0.0,74,0.00,FEW,,0.00,WeatherDisplay:10.37,2013-06-12 13:22:00,
2013-06-12 09:27:00,78.1,69.1,29.99,WSW,250,0.0,0.0,74,0.00,FEW,,0.00,WeatherDisplay:10.37,2013-06-12 13:27:00,
2013-06-12 09:32:00,78.2,70.4,29.99,WSW,250,0.0,1.2,77,0.00,FEW,,0.00,WeatherDisplay:10.37,2013-06-12 13:32:00,
2013-06-12 09:37:00,78.3,69.7,30.00,WSW,250,0.0,0.0,75,0.00,FEW,,0.00,WeatherDisplay:10.37,2013-06-12 13:37:00,
2013-06-12 09:42:00,78.4,69.8,29.99,WSW,250,0.0,0.0,75,0.00,FEW,,0.00,WeatherDisplay:10.37,2013-06-12 13:42:00,
2013-06-12 09:47:00,78.4,69.4,29.99,WSW,249,0.0,0.0,74,0.00,FEW,,0.00,WeatherDisplay:10.37,2013-06-12 13:47:00,
2013-06-12 09:52:00,78.4,69.0,29.99,SSW,205,1.5,3.5,73,0.00,FEW,,0.00,WeatherDisplay:10.37,2013-06-12 13:52:00,
2013-06-12 09:57:00,78.6,68.8,29.99,SW,224,3.0,5.8,72,0.00,FEW,,0.00,WeatherDisplay:10.37,2013-06-12 13:57:00,
2013-06-12 10:02:00,78.8,69.4,29.99,ENE,65,0.8,2.3,73,0.00,CLR,,0.00,WeatherDisplay:10.37,2013-06-12 14:02:00,
2013-06-12 10:07:00,78.6,69.2,29.99,West,266,0.4,1.2,73,0.00,CLR,,0.00,WeatherDisplay:10.37,2013-06-12 14:07:00,
2013-06-12 10:12:00,78.4,69.8,29.98,WSW,240,0.5,1.2,75,0.00,CLR,,0.00,WeatherDisplay:10.37,2013-06-12 14:12:00,
2013-06-12 10:17:00,78.1,70.7,29.99,SSE,149,0.0,0.0,78,0.00,CLR,,0.00,WeatherDisplay:10.37,2013-06-12 14:17:00,
2013-06-12 10:22:00,77.9,70.5,29.99,SSE,149,0.0,0.0,78,0.00,CLR,,0.00,WeatherDisplay:10.37,2013-06-12 14:22:00,
2013-06-12 10:27:00,77.6,70.2,29.99,SSE,149,0.2,1.2,78,0.00,CLR,,0.00,WeatherDisplay:10.37,2013-06-12 14:27:00,
2013-06-12 10:32:00,77.4,69.6,29.99,SSW,201,0.0,0.0,77,0.00,CLR,,0.00,WeatherDisplay:10.37,2013-06-12 14:32:00,
2013-06-12 10:37:00,77.5,69.7,29.99,SE,129,0.1,1.2,77,0.00,CLR,,0.00,WeatherDisplay:10.37,2013-06-12 14:37:00,
2013-06-12 10:42:00,77.6,69.8,30.00,SE,129,0.1,0.0,77,0.00,CLR,,0.00,WeatherDisplay:10.37,2013-06-12 14:42:00,
2013-06-12 10:47:00,77.9,70.5,29.99,SE,129,0.0,0.0,78,0.00,CLR,,0.00,WeatherDisplay:10.37,2013-06-12 14:47:00,
2013-06-12 10:52:00,78.0,69.0,29.99,NE,54,0.0,0.0,74,0.00,CLR,,0.00,WeatherDisplay:10.37,2013-06-12 14:52:00,
2013-06-12 10:57:00,78.0,70.2,29.98,ESE,114,0.3,1.2,77,0.00,CLR,,0.00,WeatherDisplay:10.37,2013-06-12 14:57:00,
2013-06-12 11:02:00,78.3,70.5,29.98,WNW,283,0.1,2.3,77,0.00,SCT,,0.00,WeatherDisplay:10.37,2013-06-12 15:02:00,
2013-06-12 11:07:00,79.2,69.8,29.98,SE,131,0.6,1.2,73,0.00,SCT,,0.00,WeatherDisplay:10.37,2013-06-12 15:07:00,
2013-06-12 11:12:00,80.3,71.3,29.98,SE,131,0.0,1.2,74,0.00,SCT,,0.00,WeatherDisplay:10.37,2013-06-12 15:12:00,
2013-06-12 11:17:00,81.5,71.6,29.98,SE,131,0.0,0.0,72,0.00,SCT,,0.00,WeatherDisplay:10.37,2013-06-12 15:17:00,
2013-06-12 11:22:00,82.1,71.3,29.98,WNW,285,1.1,2.3,70,0.00,SCT,,0.00,WeatherDisplay:10.37,2013-06-12 15:22:00,
2013-06-12 11:27:00,82.8,71.6,29.99,SSE,166,0.2,1.2,69,0.00,SCT,,0.00,WeatherDisplay:10.37,2013-06-12 15:27:00,
2013-06-12 11:32:00,83.2,71.1,29.98,SW,226,4.9,10.4,67,0.00,SCT,,0.00,WeatherDisplay:10.37,2013-06-12 15:32:00,
2013-06-12 11:37:00,83.0,71.3,29.98,West,276,0.3,4.6,68,0.00,SCT,,0.00,WeatherDisplay:10.37,2013-06-12 15:37:00,
2013-06-12 11:43:00,82.8,71.2,29.98,WSW,244,2.1,4.6,68,0.00,SCT,,0.00,WeatherDisplay:10.37,2013-06-12 15:43:00,
2013-06-12 11:48:00,82.6,71.0,29.99,SSE,150,1.6,3.5,68,0.00,SCT,,0.00,WeatherDisplay:10.37,2013-06-12 15:48:00,
2013-06-12 11:53:00,83.1,71.9,29.98,NW,319,0.4,2.3,69,0.00,SCT,,0.00,WeatherDisplay:10.37,2013-06-12 15:53:00,
2013-06-12 11:58:00,83.4,71.7,29.98,North,359,2.2,3.5,68,0.00,SCT,,0.00,WeatherDisplay:10.37,2013-06-12 15:58:00,
2013-06-12 12:03:00,83.6,71.5,29.98,SE,127,1.8,3.5,67,0.00,FEW,,0.00,WeatherDisplay:10.37,2013-06-12 16:03:00,
2013-06-12 12:08:00,84.0,72.7,29.98,WSW,252,0.1,1.2,69,0.00,FEW,,0.00,WeatherDisplay:10.37,2013-06-12 16:08:00,
2013-06-12 12:13:00,84.5,71.9,29.98,West,277,1.1,2.3,66,0.00,FEW,,0.00,WeatherDisplay:10.37,2013-06-12 16:13:00,
2013-06-12 12:18:00,85.9,73.2,29.98,SSW,204,0.0,1.2,66,0.00,FEW,,0.00,WeatherDisplay:10.37,2013-06-12 16:18:00,
2013-06-12 12:23:00,86.2,72.6,29.98,NE,56,0.6,2.3,64,0.00,FEW,,0.00,WeatherDisplay:10.37,2013-06-12 16:23:00,
2013-06-12 12:28:00,86.5,73.3,29.98,SE,141,0.0,0.0,65,0.00,FEW,,0.00,WeatherDisplay:10.37,2013-06-12 16:28:00,
2013-06-12 12:33:00,87.7,73.5,29.98,ESE,103,0.7,2.3,63,0.00,FEW,,0.00,WeatherDisplay:10.37,2013-06-12 16:33:00,
2013-06-12 12:38:00,88.4,73.2,29.97,SSE,158,0.0,0.0,61,0.00,FEW,,0.00,WeatherDisplay:10.37,2013-06-12 16:38:00,
2013-06-12 12:43:00,88.7,73.5,29.98,North,355,1.7,2.3,61,0.00,FEW,,0.00,WeatherDisplay:10.37,2013-06-12 16:43:00,
2013-06-12 12:48:00,88.2,73.0,29.98,South,186,3.1,3.5,61,0.00,FEW,,0.00,WeatherDisplay:10.37,2013-06-12 16:48:00,
2013-06-12 12:53:00,87.8,72.7,29.98,SW,222,3.2,7.0,61,0.00,FEW,,0.00,WeatherDisplay:10.37,2013-06-12 16:53:00,
2013-06-12 12:58:00,88.1,72.0,29.97,SW,231,3.5,6.9,59,0.00,FEW,,0.00,WeatherDisplay:10.37,2013-06-12 16:58:00,
2013-06-12 13:03:00,87.5,72.4,29.96,SW,235,1.4,3.5,61,0.00,FEW,,0.00,WeatherDisplay:10.37,2013-06-12 17:03:00,
2013-06-12 13:08:00,87.8,72.2,29.96,SW,236,2.6,6.0,60,0.00,FEW,,0.00,WeatherDisplay:10.37,2013-06-12 17:08:00,
2013-06-12 13:13:00,88.0,73.3,29.96,SW,233,0.0,0.0,62,0.00,FEW,,0.00,WeatherDisplay:10.37,2013-06-12 17:13:00,
2013-06-12 13:18:00,88.9,74.2,29.97,SW,233,3.3,4.0,62,0.00,FEW,,0.00,WeatherDisplay:10.37,2013-06-12 17:18:00,
2013-06-12 13:23:00,88.6,72.9,29.97,WSW,252,1.3,3.5,60,0.00,FEW,,0.00,WeatherDisplay:10.37,2013-06-12 17:23:00,
2013-06-12 13:28:00,88.8,72.6,29.97,SE,127,1.3,3.5,59,0.00,FEW,,0.00,WeatherDisplay:10.37,2013-06-12 17:28:00,
2013-06-12 13:33:00,89.7,73.5,29.97,WNW,297,2.7,3.5,59,0.00,FEW,,0.00,WeatherDisplay:10.37,2013-06-12 17:33:00,
2013-06-12 13:38:00,89.4,72.7,29.97,SSW,195,1.7,3.5,58,0.00,FEW,,0.00,WeatherDisplay:10.37,2013-06-12 17:38:00,
2013-06-12 13:43:00,89.0,72.8,29.96,West,266,1.8,3.5,59,0.00,FEW,,0.00,WeatherDisplay:10.37,2013-06-12 17:43:00,
2013-06-12 13:48:00,89.0,72.8,29.96,ESE,103,1.0,3.5,59,0.00,FEW,,0.00,WeatherDisplay:10.37,2013-06-12 17:48:00,
2013-06-12 13:53:00,88.6,71.9,29.96,SW,226,1.8,3.5,58,0.00,FEW,,0.00,WeatherDisplay:10.37,2013-06-12 17:53:00,
2013-06-12 13:58:00,89.4,72.7,29.95,WSW,238,1.7,3.5,58,0.00,FEW,,0.00,WeatherDisplay:10.37,2013-06-12 17:58:00,
2013-06-12 14:03:00,89.9,73.7,29.95,WSW,253,1.1,2.3,59,0.00,SCT,,0.00,WeatherDisplay:10.37,2013-06-12 18:03:00,
2013-06-12 14:08:00,89.7,73.5,29.95,WSW,246,1.3,3.5,59,0.00,SCT,,0.00,WeatherDisplay:10.37,2013-06-12 18:08:00,
2013-06-12 14:13:00,89.7,73.0,29.95,SW,235,1.9,3.5,58,0.00,SCT,,0.00,WeatherDisplay:10.37,2013-06-12 18:13:00,
2013-06-12 14:18:00,89.8,72.5,29.95,SW,222,1.3,3.5,57,0.00,SCT,,0.00,WeatherDisplay:10.37,2013-06-12 18:18:00,
2013-06-12 14:23:00,90.4,73.6,29.95,NE,38,0.3,2.3,58,0.00,SCT,,0.00,WeatherDisplay:10.37,2013-06-12 18:23:00,
2013-06-12 14:28:00,90.8,72.9,29.95,WSW,246,2.0,8.1,56,0.00,SCT,,0.00,WeatherDisplay:10.37,2013-06-12 18:28:00,
2013-06-12 14:33:00,91.5,73.6,29.95,North,9,2.9,4.6,56,0.00,SCT,,0.00,WeatherDisplay:10.37,2013-06-12 18:33:00,
2013-06-12 14:38:00,91.3,72.9,29.94,West,281,1.2,5.8,55,0.00,SCT,,0.00,WeatherDisplay:10.37,2013-06-12 18:38:00,
2013-06-12 14:43:00,91.2,73.8,29.94,SW,226,2.8,4.6,57,0.00,SCT,,0.00,WeatherDisplay:10.37,2013-06-12 18:43:00,
2013-06-12 14:48:00,90.6,72.8,29.94,SW,236,4.1,8.1,56,0.00,SCT,,0.00,WeatherDisplay:10.37,2013-06-12 18:48:00,
2013-06-12 14:53:00,90.4,73.1,29.94,SW,233,3.9,5.8,57,0.00,SCT,,0.00,WeatherDisplay:10.37,2013-06-12 18:53:00,
2013-06-12 14:58:00,89.9,72.6,29.93,NNE,26,0.8,2.3,57,0.00,SCT,,0.00,WeatherDisplay:10.37,2013-06-12 18:58:00,
2013-06-12 15:03:00,90.3,72.5,29.94,ENE,60,3.0,8.1,56,0.00,SCT,,0.00,WeatherDisplay:10.37,2013-06-12 19:03:00,
2013-06-12 15:08:00,90.6,72.8,29.93,WSW,255,2.1,4.6,56,0.00,SCT,,0.00,WeatherDisplay:10.37,2013-06-12 19:08:00,
2013-06-12 15:13:00,91.2,72.8,29.94,WSW,256,1.6,3.5,55,0.00,SCT,,0.00,WeatherDisplay:10.37,2013-06-12 19:13:00,
2013-06-12 15:18:00,91.4,73.0,29.94,WNW,283,3.9,8.1,55,0.00,SCT,,0.00,WeatherDisplay:10.37,2013-06-12 19:18:00,
2013-06-12 15:23:00,91.8,73.9,29.95,WNW,288,1.6,3.5,56,0.00,SCT,,0.00,WeatherDisplay:10.37,2013-06-12 19:23:00,
2013-06-12 15:28:00,91.6,71.5,29.95,ENE,72,3.6,6.9,52,0.00,SCT,,0.00,WeatherDisplay:10.37,2013-06-12 19:28:00,
2013-06-12 15:33:00,90.2,71.3,29.94,East,81,1.5,9.2,54,0.00,SCT,,0.00,WeatherDisplay:10.37,2013-06-12 19:33:00,
2013-06-12 15:38:00,90.1,72.3,29.94,North,360,1.4,3.5,56,0.00,SCT,,0.00,WeatherDisplay:10.37,2013-06-12 19:38:00,
2013-06-12 15:43:00,89.8,70.9,29.95,West,276,2.5,4.6,54,0.00,SCT,,0.00,WeatherDisplay:10.37,2013-06-12 19:43:00,
2013-06-12 15:48:00,89.9,70.5,29.95,SSW,198,1.8,5.8,53,0.00,SCT,,0.00,WeatherDisplay:10.37,2013-06-12 19:48:00,
2013-06-12 15:53:00,90.5,71.0,29.95,SW,225,4.8,6.9,53,0.00,SCT,,0.00,WeatherDisplay:10.37,2013-06-12 19:53:00,
2013-06-12 15:58:00,90.5,73.2,29.94,West,276,0.2,1.2,57,0.00,SCT,,0.00,WeatherDisplay:10.37,2013-06-12 19:58:00,
2013-06-12 16:03:00,90.6,71.7,29.95,WNW,303,3.7,8.1,54,0.00,SCT,,0.00,WeatherDisplay:10.37,2013-06-12 20:03:00,
2013-06-12 16:08:00,90.5,72.1,29.95,SSW,212,2.5,8.0,55,0.00,SCT,,0.00,WeatherDisplay:10.37,2013-06-12 20:08:00,
2013-06-12 16:13:00,90.1,72.3,29.94,SW,219,3.0,5.8,56,0.00,SCT,,0.00,WeatherDisplay:10.37,2013-06-12 20:13:00,
2013-06-12 16:18:00,90.2,71.8,29.94,South,188,2.5,4.6,55,0.00,SCT,,0.00,WeatherDisplay:10.37,2013-06-12 20:18:00,
2013-06-12 16:23:00,90.7,72.3,29.94,SE,142,2.2,4.6,55,0.00,SCT,,0.00,WeatherDisplay:10.37,2013-06-12 20:23:00,
2013-06-12 16:28:00,90.8,71.9,29.94,SW,221,1.0,2.3,54,0.00,SCT,,0.00,WeatherDisplay:10.37,2013-06-12 20:28:00,
2013-06-12 16:33:00,90.4,72.0,29.94,NE,34,1.9,3.5,55,0.00,SCT,,0.00,WeatherDisplay:10.37,2013-06-12 20:33:00,
2013-06-12 16:38:00,90.5,71.6,29.94,SW,226,4.4,10.4,54,0.00,SCT,,0.00,WeatherDisplay:10.37,2013-06-12 20:38:00,
2013-06-12 16:43:00,90.5,71.0,29.94,West,273,2.3,5.8,53,0.00,SCT,,0.00,WeatherDisplay:10.37,2013-06-12 20:43:00,
2013-06-12 16:48:00,90.8,71.9,29.94,SSW,208,1.6,2.3,54,0.00,SCT,,0.00,WeatherDisplay:10.37,2013-06-12 20:48:00,
2013-06-12 16:53:00,91.2,71.7,29.94,NNE,26,1.7,4.6,53,0.00,SCT,,0.00,WeatherDisplay:10.37,2013-06-12 20:53:00,
2013-06-12 16:58:00,90.6,71.7,29.94,East,80,3.7,6.9,54,0.00,SCT,,0.00,WeatherDisplay:10.37,2013-06-12 20:58:00,
2013-06-12 17:03:00,90.2,71.3,29.93,WSW,239,3.9,11.0,54,0.00,FEW,,0.00,WeatherDisplay:10.37,2013-06-12 21:03:00,
2013-06-12 17:08:00,90.1,70.7,29.94,SE,131,4.1,5.0,53,0.00,FEW,,0.00,WeatherDisplay:10.37,2013-06-12 21:08:00,
2013-06-12 17:13:00,90.0,70.6,29.93,North,359,2.2,3.5,53,0.00,FEW,,0.00,WeatherDisplay:10.37,2013-06-12 21:13:00,
2013-06-12 17:18:00,90.1,71.8,29.93,WSW,257,0.1,1.2,55,0.00,FEW,,0.00,WeatherDisplay:10.37,2013-06-12 21:18:00,
2013-06-12 17:23:00,90.6,72.2,29.93,NE,41,1.4,2.3,55,0.00,FEW,,0.00,WeatherDisplay:10.37,2013-06-12 21:23:00,
2013-06-12 17:28:00,90.2,71.8,29.92,NE,37,1.3,3.5,55,0.00,FEW,,0.00,WeatherDisplay:10.37,2013-06-12 21:28:00,
2013-06-12 17:33:00,90.2,71.8,29.92,ESE,107,0.5,3.5,55,0.00,FEW,,0.00,WeatherDisplay:10.37,2013-06-12 21:33:00,
2013-06-12 17:38:00,90.7,73.4,29.92,West,277,0.9,1.2,57,0.00,FEW,,0.00,WeatherDisplay:10.37,2013-06-12 21:38:00,
2013-06-12 17:43:00,90.6,72.2,29.92,South,181,1.0,1.2,55,0.00,FEW,,0.00,WeatherDisplay:10.37,2013-06-12 21:43:00,
2013-06-12 17:48:00,90.2,71.3,29.93,WSW,241,1.4,5.8,54,0.00,FEW,,0.00,WeatherDisplay:10.37,2013-06-12 21:48:00,
2013-06-12 17:53:00,90.3,72.5,29.93,SW,235,0.7,2.0,56,0.00,FEW,,0.00,WeatherDisplay:10.37,2013-06-12 21:53:00,
2013-06-12 17:58:00,90.6,71.1,29.92,NNE,29,1.7,3.5,53,0.00,FEW,,0.00,WeatherDisplay:10.37,2013-06-12 21:58:00,
2013-06-12 18:03:00,90.3,70.8,29.92,SSW,195,4.2,6.9,53,0.00,FEW,,0.00,WeatherDisplay:10.37,2013-06-12 22:03:00,
2013-06-12 18:08:00,89.8,72.0,29.92,NW,309,2.4,8.1,56,0.00,FEW,,0.00,WeatherDisplay:10.37,2013-06-12 22:08:00,
2013-06-12 18:13:00,89.7,71.9,29.92,WSW,243,1.6,3.5,56,0.00,FEW,,0.00,WeatherDisplay:10.37,2013-06-12 22:13:00,
2013-06-12 18:18:00,89.6,71.8,29.92,SW,225,1.8,3.5,56,0.00,FEW,,0.00,WeatherDisplay:10.37,2013-06-12 22:18:00,
2013-06-12 18:23:00,89.8,71.5,29.92,SSW,212,0.6,2.3,55,0.00,FEW,,0.00,WeatherDisplay:10.37,2013-06-12 22:23:00,
2013-06-12 18:28:00,89.9,70.5,29.92,WSW,242,3.0,4.6,53,0.00,FEW,,0.00,WeatherDisplay:10.37,2013-06-12 22:28:00,
2013-06-12 18:33:00,89.9,72.1,29.91,SW,226,0.1,3.5,56,0.00,FEW,,0.00,WeatherDisplay:10.37,2013-06-12 22:33:00,
2013-06-12 18:38:00,90.6,72.8,29.91,SW,226,0.0,1.0,56,0.00,FEW,,0.00,WeatherDisplay:10.37,2013-06-12 22:38:00,
2013-06-12 18:43:00,90.0,71.1,29.91,East,86,1.7,3.5,54,0.00,FEW,,0.00,WeatherDisplay:10.37,2013-06-12 22:43:00,
2013-06-12 18:48:00,89.9,71.6,29.91,WSW,239,0.4,1.2,55,0.00,FEW,,0.00,WeatherDisplay:10.37,2013-06-12 22:48:00,
2013-06-12 18:53:00,90.3,71.4,29.91,SSW,212,0.0,1.2,54,0.00,FEW,,0.00,WeatherDisplay:10.37,2013-06-12 22:53:00,
2013-06-12 18:58:00,90.3,71.4,29.91,WSW,250,1.8,4.6,54,0.00,FEW,,0.00,WeatherDisplay:10.37,2013-06-12 22:58:00,
2013-06-12 19:03:00,89.9,71.6,29.91,SW,236,0.0,1.0,55,0.00,FEW,,0.00,WeatherDisplay:10.37,2013-06-12 23:03:00,
2013-06-12 19:08:00,90.2,71.3,29.91,SW,229,1.0,2.3,54,0.00,FEW,,0.00,WeatherDisplay:10.37,2013-06-12 23:08:00,
2013-06-12 19:13:00,90.7,72.3,29.91,SW,228,0.0,0.0,55,0.00,FEW,,0.00,WeatherDisplay:10.37,2013-06-12 23:13:00,
2013-06-12 19:18:00,90.8,72.9,29.91,WSW,245,0.0,0.0,56,0.00,FEW,,0.00,WeatherDisplay:10.37,2013-06-12 23:18:00,
2013-06-12 19:23:00,90.8,72.9,29.92,WSW,245,0.0,0.0,56,0.00,FEW,,0.00,WeatherDisplay:10.37,2013-06-12 23:23:00,
2013-06-12 19:28:00,90.0,72.7,29.92,WSW,245,0.0,0.0,57,0.00,FEW,,0.00,WeatherDisplay:10.37,2013-06-12 23:28:00,
2013-06-12 19:33:00,88.9,73.2,29.91,WSW,245,0.0,0.0,60,0.00,FEW,,0.00,WeatherDisplay:10.37,2013-06-12 23:33:00,
2013-06-12 19:38:00,87.6,73.0,29.92,WSW,245,0.0,0.0,62,0.00,FEW,,0.00,WeatherDisplay:10.37,2013-06-12 23:38:00,
2013-06-12 19:43:00,86.8,73.2,29.92,WSW,244,0.0,0.0,64,0.00,FEW,,0.00,WeatherDisplay:10.37,2013-06-12 23:43:00,
2013-06-12 19:48:00,86.4,73.2,29.92,WSW,244,0.0,0.0,65,0.00,FEW,,0.00,WeatherDisplay:10.37,2013-06-12 23:48:00,
2013-06-12 19:53:00,85.5,73.3,29.92,WSW,245,0.0,0.0,67,0.00,FEW,,0.00,WeatherDisplay:10.37,2013-06-12 23:53:00,
2013-06-12 19:58:00,85.2,73.4,29.92,WSW,245,0.0,0.0,68,0.00,FEW,,0.00,WeatherDisplay:10.37,2013-06-12 23:58:00,
2013-06-12 20:03:00,84.4,74.0,29.92,WSW,245,0.0,0.0,71,0.00,FEW,,0.00,WeatherDisplay:10.37,2013-06-13 00:03:00,
2013-06-12 20:08:00,83.8,73.4,29.92,WSW,245,0.0,0.0,71,0.00,FEW,,0.00,WeatherDisplay:10.37,2013-06-13 00:08:00,
2013-06-12 20:13:00,83.4,73.8,29.91,WSW,244,0.0,0.0,73,0.00,FEW,,0.00,WeatherDisplay:10.37,2013-06-13 00:13:00,
2013-06-12 20:18:00,83.1,73.9,29.91,WSW,245,0.0,0.0,74,0.00,FEW,,0.00,WeatherDisplay:10.37,2013-06-13 00:18:00,
2013-06-12 20:23:00,82.7,73.6,29.91,WSW,245,0.0,0.0,74,0.00,FEW,,0.00,WeatherDisplay:10.37,2013-06-13 00:23:00,
2013-06-12 20:28:00,82.1,72.6,29.91,WSW,245,0.0,0.0,73,0.00,FEW,,0.00,WeatherDisplay:10.37,2013-06-13 00:28:00,
2013-06-12 20:33:00,81.6,72.5,29.91,WSW,244,0.0,0.0,74,0.00,FEW,,0.00,WeatherDisplay:10.37,2013-06-13 00:33:00,
2013-06-12 20:38:00,81.1,72.8,29.91,WSW,245,0.0,0.0,76,0.00,FEW,,0.00,WeatherDisplay:10.37,2013-06-13 00:38:00,
2013-06-12 20:43:00,80.6,72.3,29.91,WSW,245,0.0,0.0,76,0.00,FEW,,0.00,WeatherDisplay:10.37,2013-06-13 00:43:00,
2013-06-12 20:48:00,80.0,72.5,29.92,WSW,244,0.0,0.0,78,0.00,FEW,,0.00,WeatherDisplay:10.37,2013-06-13 00:48:00,
2013-06-12 20:53:00,79.5,72.4,29.91,WSW,244,0.0,0.0,79,0.00,FEW,,0.00,WeatherDisplay:10.37,2013-06-13 00:53:00,
2013-06-12 20:58:00,79.0,71.9,29.91,WSW,245,0.0,0.0,79,0.00,FEW,,0.00,WeatherDisplay:10.37,2013-06-13 00:58:00,
2013-06-12 21:03:00,78.7,71.6,29.92,WSW,244,0.0,0.0,79,0.00,FEW,,0.00,WeatherDisplay:10.37,2013-06-13 01:03:00,
2013-06-12 21:08:00,78.6,71.9,29.91,WSW,244,0.0,0.0,80,0.00,FEW,,0.00,WeatherDisplay:10.37,2013-06-13 01:08:00,
2013-06-12 21:13:00,78.4,72.1,29.91,WSW,245,0.0,0.0,81,0.00,FEW,,0.00,WeatherDisplay:10.37,2013-06-13 01:13:00,
2013-06-12 21:18:00,78.3,72.0,29.91,WSW,244,0.0,0.0,81,0.00,FEW,,0.00,WeatherDisplay:10.37,2013-06-13 01:18:00,
2013-06-12 21:23:00,78.2,72.3,29.91,SE,145,0.0,1.2,82,0.00,FEW,,0.00,WeatherDisplay:10.37,2013-06-13 01:23:00,
2013-06-12 21:28:00,78.0,72.1,29.91,SE,145,0.0,0.0,82,0.00,FEW,,0.00,WeatherDisplay:10.37,2013-06-13 01:28:00,
2013-06-12 21:33:00,77.7,71.8,29.91,SE,146,0.0,1.2,82,0.00,FEW,,0.00,WeatherDisplay:10.37,2013-06-13 01:33:00,
2013-06-12 21:38:00,77.5,71.9,29.91,SSE,156,0.0,0.0,83,0.00,FEW,,0.00,WeatherDisplay:10.37,2013-06-13 01:38:00,
2013-06-12 21:43:00,77.2,71.6,29.92,SSE,153,0.0,0.0,83,0.00,FEW,,0.00,WeatherDisplay:10.37,2013-06-13 01:43:00,
2013-06-12 21:48:00,77.0,71.8,29.93,SSE,154,0.0,0.0,84,0.00,FEW,,0.00,WeatherDisplay:10.37,2013-06-13 01:48:00,
2013-06-12 21:53:00,76.7,71.5,29.92,SSE,155,0.0,0.0,84,0.00,FEW,,0.00,WeatherDisplay:10.37,2013-06-13 01:53:00,
2013-06-12 21:58:00,76.4,71.6,29.93,SE,128,0.0,1.2,85,0.00,FEW,,0.00,WeatherDisplay:10.37,2013-06-13 01:58:00,
2013-06-12 22:03:00,76.1,71.3,29.93,SSW,212,0.5,3.5,85,0.00,CLR,,0.00,WeatherDisplay:10.37,2013-06-13 02:03:00,
2013-06-12 22:08:00,76.0,70.8,29.93,SW,219,0.7,2.0,84,0.00,CLR,,0.00,WeatherDisplay:10.37,2013-06-13 02:08:00,
2013-06-12 22:13:00,75.9,70.7,29.93,SSW,212,0.0,0.0,84,0.00,CLR,,0.00,WeatherDisplay:10.37,2013-06-13 02:13:00,
2013-06-12 22:18:00,75.8,70.6,29.92,SSW,212,0.0,0.0,84,0.00,CLR,,0.00,WeatherDisplay:10.37,2013-06-13 02:18:00,
2013-06-12 22:23:00,75.7,70.9,29.92,SSW,212,0.0,1.2,85,0.00,CLR,,0.00,WeatherDisplay:10.37,2013-06-13 02:23:00,
2013-06-12 22:28:00,75.6,70.8,29.93,SSW,212,0.0,0.0,85,0.00,CLR,,0.00,WeatherDisplay:10.37,2013-06-13 02:28:00,
2013-06-12 22:33:00,75.4,70.6,29.93,SSW,212,0.0,0.0,85,0.00,CLR,,0.00,WeatherDisplay:10.37,2013-06-13 02:33:00,
2013-06-12 22:38:00,75.3,70.1,29.93,SSW,212,0.0,0.0,84,0.00,CLR,,0.00,WeatherDisplay:10.37,2013-06-13 02:38:00,
2013-06-12 22:43:00,75.1,70.3,29.93,SSW,212,0.0,0.0,85,0.00,CLR,,0.00,WeatherDisplay:10.37,2013-06-13 02:43:00,
2013-06-12 22:48:00,75.0,70.2,29.93,SSW,212,0.0,0.0,85,0.00,CLR,,0.00,WeatherDisplay:10.37,2013-06-13 02:48:00,
2013-06-12 22:53:00,74.8,70.0,29.93,SSW,208,0.6,2.0,85,0.00,CLR,,0.00,WeatherDisplay:10.37,2013-06-13 02:53:00,
2013-06-12 22:58:00,74.7,69.9,29.93,SSW,207,0.0,0.0,85,0.00,CLR,,0.00,WeatherDisplay:10.37,2013-06-13 02:58:00,
2013-06-12 23:03:00,74.7,69.5,29.93,SSW,200,0.0,0.0,84,0.00,CLR,,0.00,WeatherDisplay:10.37,2013-06-13 03:03:00,
2013-06-12 23:08:00,74.7,69.5,29.92,SSE,150,0.0,0.0,84,0.00,CLR,,0.00,WeatherDisplay:10.37,2013-06-13 03:08:00,
2013-06-12 23:13:00,74.7,69.5,29.92,ESE,104,0.0,1.2,84,0.00,CLR,,0.00,WeatherDisplay:10.37,2013-06-13 03:13:00,
2013-06-12 23:18:00,74.7,69.5,29.92,ESE,104,0.2,1.2,84,0.00,CLR,,0.00,WeatherDisplay:10.37,2013-06-13 03:18:00,
2013-06-12 23:23:00,74.8,69.6,29.91,South,170,0.0,0.0,84,0.00,CLR,,0.00,WeatherDisplay:10.37,2013-06-13 03:23:00,
2013-06-12 23:28:00,74.7,69.5,29.92,South,169,0.0,0.0,84,0.00,CLR,,0.00,WeatherDisplay:10.37,2013-06-13 03:28:00,
2013-06-12 23:33:00,74.5,69.3,29.91,South,170,0.0,0.0,84,0.00,CLR,,0.00,WeatherDisplay:10.37,2013-06-13 03:33:00,
2013-06-12 23:38:00,74.4,69.6,29.91,SE,143,0.0,0.0,85,0.00,CLR,,0.00,WeatherDisplay:10.37,2013-06-13 03:38:00,
2013-06-12 23:43:00,74.2,69.4,29.91,SE,143,0.0,0.0,85,0.00,CLR,,0.00,WeatherDisplay:10.37,2013-06-13 03:43:00,
2013-06-12 23:48:00,74.0,69.2,29.91,SE,143,0.0,0.0,85,0.00,CLR,,0.00,WeatherDisplay:10.37,2013-06-13 03:48:00,
2013-06-12 23:53:00,73.9,69.4,29.91,SE,143,0.0,1.2,86,0.00,CLR,,0.00,WeatherDisplay:10.37,2013-06-13 03:53:00,
2013-06-12 23:58:00,73.7,69.6,29.91,SE,144,0.0,1.2,87,0.00,CLR,,0.00,WeatherDisplay:10.37,2013-06-13 03:58:00,